Flag for Poland Weather past 2 weeks in Rzeszów, Poland

Now
55 °F

Clear.


Feels Like: 55 °F
Forecast: 51 / 75 °F
Wind: 5 mph from Southeast

Location: Rzeszow-Jasionka

Current Time: Apr 27, 2015 at 12:42:46 AM

Latest Report: Apr 27, 2015 at 12:00 AM


Visibility: 10 mi

Pressure: 29.80 "Hg

Humidity: 88%

Dew point: 52 °F

Location of RzeszówLocation

Historic Weather in Rzeszów — Graph

°F

Rzeszów temperature yesterday

Maximum temperature yesterday: 72 °F (at 3:30 PM)
Minimum temperature yesterday: 52 °F (at 3:30 AM)
Average temperature yesterday: 62 °F

Past Weeks' High & Low Weather Summary

 TemperatureHumidityPressure
High73 °F (Apr 25, 3:30 PM)100% (Apr 18, 10:30 PM)30.33 "Hg (Apr 18, 10:30 PM)
Low34 °F (Apr 14, 4:00 AM)26% (Apr 14, 5:30 PM)29.74 "Hg (Apr 26, 7:00 PM)
Average51 °F60%30.01 "Hg
* Reported Apr 11 11:00 PM — Apr 26 11:30 PM, Rzeszów, Weather by CustomWeather, © 2015

Note: Actual official high and low records may vary slightly from our data, if they occured in-between our weather recording intervals... More about our weather records

Advertising

Rzeszów weather history for previous 24 hours

 ConditionsComfort  
Time TempWeatherWind HumidityBarometerVisibility
11:30 PM
Sun, Apr 26
55 °FPassing clouds.1 mph94%29.80 "HgN/A
11:00 PM57 °FSprinkles. Passing clouds.No wind82%29.83 "HgN/A
10:30 PM59 °FPassing clouds.7 mph77%29.83 "HgN/A
10:00 PM59 °FPassing clouds.9 mph77%29.83 "HgN/A
9:30 PM61 °FSprinkles. Passing clouds.17 mph68%29.80 "HgN/A
9:00 PM63 °FPassing clouds.7 mph56%29.77 "HgN/A
8:30 PM63 °FPassing clouds.7 mph52%29.77 "HgN/A
8:00 PM64 °FSunny.6 mph49%29.77 "Hg10 mi
7:30 PM66 °FSunny.6 mph46%29.74 "Hg10 mi
7:00 PM68 °FPassing clouds.8 mph43%29.74 "HgN/A
6:30 PM70 °FSunny.12 mph40%29.77 "Hg10 mi
6:00 PM70 °FPassing clouds.13 mph40%29.77 "HgN/A
5:30 PM70 °FPassing clouds.13 mph43%29.77 "HgN/A
5:00 PM70 °FPassing clouds.12 mph43%29.77 "HgN/A
4:30 PM70 °FPassing clouds.12 mph43%29.77 "HgN/A
4:00 PM70 °FSunny.10 mph43%29.77 "Hg10 mi
3:30 PM72 °FSunny.9 mph38%29.80 "Hg10 mi
3:00 PM70 °FPassing clouds.7 mph43%29.80 "HgN/A
2:30 PM70 °FPassing clouds.7 mph40%29.80 "HgN/A
2:00 PM70 °FPassing clouds.3 mph38%29.80 "HgN/A
1:30 PM70 °FPassing clouds.7 mph43%29.80 "HgN/A
1:00 PM70 °FPassing clouds.7 mph40%29.83 "HgN/A
12:30 PM70 °FPassing clouds.9 mph43%29.83 "HgN/A
12:00 PM70 °FScattered clouds.9 mph40%29.83 "HgN/A
11:30 AM68 °FPassing clouds.10 mph46%29.83 "HgN/A
11:00 AM68 °FPassing clouds.12 mph43%29.83 "HgN/A
10:30 AM66 °FPassing clouds.12 mph49%29.86 "HgN/A
10:00 AM64 °FSunny.12 mph52%29.83 "Hg10 mi
9:30 AM64 °FSunny.9 mph52%29.86 "Hg10 mi
9:00 AM61 °FSunny.10 mph59%29.86 "Hg10 mi
8:30 AM61 °FSunny.10 mph59%29.86 "Hg10 mi
8:00 AM61 °FSunny.8 mph59%29.86 "Hg10 mi
7:30 AM57 °FSunny.5 mph72%29.86 "Hg10 mi
7:00 AM54 °FSunny.3 mph72%29.86 "Hg10 mi
6:30 AM54 °FSunny.5 mph67%29.86 "Hg10 mi
6:00 AM54 °FClear.5 mph67%29.86 "Hg10 mi
5:30 AM52 °FClear.3 mph72%29.86 "Hg10 mi
5:00 AM54 °FClear.3 mph67%29.86 "Hg10 mi
4:30 AM54 °FClear.2 mph67%29.86 "Hg10 mi
4:00 AM54 °FClear.3 mph67%29.86 "Hg10 mi
3:30 AM52 °FClear.5 mph72%29.86 "Hg10 mi
3:00 AM55 °FClear.5 mph63%29.86 "Hg10 mi
2:30 AM54 °FPassing clouds.3 mph67%29.86 "HgN/A
2:00 AM54 °FClear.2 mph67%29.86 "Hg10 mi
1:30 AM54 °FClear.3 mph67%29.86 "Hg10 mi
1:00 AM55 °FClear.3 mph63%29.86 "Hg10 mi
12:30 AM57 °FClear.5 mph59%29.86 "Hg10 mi
12:00 AM57 °FClear.2 mph59%29.86 "Hg10 mi
Weather by CustomWeather, © 2015

See weather overviewHow to use our weather pages